User: anonymous   Login
Location: Caltech
(34.1382°N, 118.1253°W)
Time: 19:40:42
(UTC-07:00)
Language:

Cosmos 1758 Rocket - Orbit

View from above orbital plane
View from above orbital plane
View from above satellite
View from above satellite

Ground track
Ground track

The orbit data is extracted from the following two-line orbital elements,

1 16792U 86046B   15185.50598858  .00000221  00000-0  24090-4 0  9991
2 16792 082.4829 153.8508 0025704 120.7398 019.2192 14.82933269569100
Epoch (UTC): 04 July 2015 12:08:37
Eccentricity: 0.0025704
inclination: 82.4829°
perigee height: 602 km
apogee height: 638 km
right ascension of ascending node: 153.8508°
argument of perigee: 120.7398°
revolutions per day: 14.82933269
mean anomaly at epoch: 19.2192°
orbit number at epoch: 56910

The dashed part of the orbit path shows where the satellite is in the earth's shadow,  

DLR